Location: Kershaw
(34.5481°N, 80.5823°W)
Time: 16:40:58
(UTC+00:00)

Transit 2A - Pass Details

Date: 04 October 2022
Orbit: 598 x 959 km, 66.7° (Epoch: 06 December)

Event Time Altitude Azimuth Distance (km) Brightness Sun altitude
Rises 12:04:13 0° 349° (NNW) 2,984 8.8 8.3°
Reaches altitude 10° 12:06:56 10° 5° (N) 2,123 8.3 8.9°
Maximum altitude 12:10:38 22° 56° (NE) 1,553 8.4 9.6°
Drops below altitude 10° 12:14:37 10° 106° (ESE) 2,290 12.3 10.4°
Sets 12:17:39 0° 121° (ESE) 3,287 10.9 11.0°
